Regional Weather Roundup
Issued by NWS

Home | Current Version | Previous Version | Graphics & Text | Print | Product List | Glossary On
Versions: 1 2 3 4 5 6 7 8 9 10 11 12 13 14 15 16 17 18 19 20 21 22 23 24 25 26 27 28 29 30 31 32 33 34 35 36 37 38 39 40 41 42 43 44 45 46 47 48 49 50
000
ASUS43 KOAX 252202
RWRNE

WEATHER ROUNDUP FOR NEBRASKA
NATIONAL WEATHER SERVICE OMAHA NE
500 PM CDT TUE APR 25 2017

NOTES: SATELLITE DATA IS BEING USED TO AUGMENT CLOUD COVER ABOVE
       12000 FEET.
       "FAIR" INDICATES FEW OR NO CLOUDS BELOW 12,000 FEET WITH NO
       SIGNIFICANT WEATHER AND/OR OBSTRUCTIONS TO VISIBILITY.

  * THESE STATIONS DO NOT REPORT WEATHER SUCH AS RAIN...SNOW OR FOG.

NEZ001>004-019>022-054>056-252300-
NEBRASKA PANHANDLE

CITY           SKY/WX    TMP DP  RH WIND       PRES   REMARKS
SCOTTSBLUFF    CLOUDY    42  34  73 NE15G21   29.68R
ALLIANCE       CLOUDY    38  32  79 N17       29.68R WCI  28
CHADRON        CLOUDY    34  30  85 N16       29.76R WCI  24
KIMBALL        CLOUDY    49  41  73 N17G24    29.62S
SIDNEY         CLOUDY    47  41  80 NE22      29.62R
$$

NEZ057>060-069>072-079>082-252300-
SOUTHWEST NEBRASKA

CITY           SKY/WX    TMP DP  RH WIND       PRES   REMARKS
NORTH PLATTE   CLOUDY    46  38  73 N18G29    29.63S
IMPERIAL       CLOUDY    52  43  71 NE15      29.58S
LEXINGTON      CLOUDY    44  38  81 N17       29.63R
MCCOOK         CLOUDY    52  42  69 NE14      29.59S
OGALLALA       CLOUDY    50  40  67 NE16      29.62R
$$

NEZ005>010-023>029-035>040-094-252300-
NORTH CENTRAL NEBRASKA

CITY           SKY/WX    TMP DP  RH WIND       PRES   REMARKS
VALENTINE      CLOUDY    38  29  70 N21G26    29.72S WCI  28
AINSWORTH      CLOUDY    35  33  94 N22G29    29.70R WCI  23
BROKEN BOW     CLOUDY    40  35  83 N20       29.65R WCI  30
O`NEILL        CLOUDY    39  34  83 N16G25    29.67R WCI  30
ORD            CLOUDY    39  34  82 N17       29.65R WCI  30
THEDFORD       CLOUDY    39  33  80 N13       29.69R WCI  31
$$

NEZ041-046>049-061>064-073>077-083>087-252300-
SOUTH CENTRAL NEBRASKA

CITY           SKY/WX    TMP DP  RH WIND       PRES   REMARKS
GRAND ISLAND   CLOUDY    40  38  93 N18       29.62R WCI  31
AURORA         CLOUDY    41  38  87 N18G24    29.60R
HASTINGS       CLOUDY    43  38  82 N21       29.59S
HEBRON         CLOUDY    47  38  73 N14G24    29.55S
HOLDREGE       CLOUDY    43  39  87 N17       29.60S
KEARNEY *      CLOUDY    43  36  75 N20       29.62R
YORK           CLOUDY    43  39  87 N15       29.58S
$$

NEZ011>018-030>034-042>045-252300-
NORTHEAST NEBRASKA

CITY           SKY/WX    TMP DP  RH WIND       PRES   REMARKS
NORFOLK        CLOUDY    41  37  86 N17G24    29.59R
ALBION         CLOUDY    41  37  84 N13G21    29.62R
BLAIR          CLOUDY    46  42  86 N18       29.52S FOG
FREMONT        CLOUDY    46  40  82 N6        29.55R
TEKAMAH        CLOUDY    46  40  79 N22G29    29.54F
WAYNE          DRIZZLE   43  42  99 N12G18    29.60R
$$

NEZ050>053-065>068-078-088>093-252300-
SOUTHEAST NEBRASKA

CITY           SKY/WX    TMP DP  RH WIND       PRES   REMARKS
LINCOLN        CLOUDY    48  41  76 N20       29.55R
OMAHA EPPLEY   LGT RAIN  48  43  82 N16       29.51S
BEATRICE       CLOUDY    50  43  76 N15G21    29.52R
FALLS CITY     CLOUDY    58  48  69 NW16      29.45R
NEBRASKA CITY  CLOUDY    53  41  65 N13       29.48S
PLATTSMOUTH    CLOUDY    50  42  74 NW14G20   29.48F
$$

NEZ044-045-051>053-067-252300-
OMAHA AREA

CITY           SKY/WX    TMP DP  RH WIND       PRES   REMARKS
OMAHA EPPLEY   LGT RAIN  48  43  82 N16       29.51S
BLAIR          CLOUDY    46  42  86 N18       29.52S FOG
FREMONT        CLOUDY    46  40  82 N6        29.55R
MILLARD        DRIZZLE   49  46  87 N9        29.52S
OFFUTT AFB     CLOUDY    50  44  79 N12G18    29.49F
PLATTSMOUTH    CLOUDY    50  42  74 NW14G20   29.48F
WAHOO          CLOUDY    46  40  79 N20G28    29.54R
$$




USA.gov is the U.S. government's official web portal to all federal, state and local government web resources and services.